Weather History for KRVS - February, 2013

Change the Weather History Date:

Thursday, February 21, 2013

  Actual Average (KTUL) Record (KTUL)
Temperature  
Mean Temperature 32 °F 44 °F  
Max Temperature 36 °F 55 °F 82 °F (1996)
Min Temperature 27 °F 33 °F 7 °F (1939)
Degree Days  
Heating Degree Days 33 21  
Month to date heating degree days 499  
Since 1 July heating degree days 2772  
Moisture  
Dew Point 30 °F    
Average Humidity 85    
Maximum Humidity 96    
Minimum Humidity 69    
Precipitation  
Precipitation 0.76 in 0.08 in 1.43 in (1913)
Month to date precipitation 1.31  
Year to date precipitation 2.97  
Sea Level Pressure  
Sea Level Pressure 29.83 in    
Wind  
Wind Speed 9 mph (ESE)    
Max Wind Speed 15 mph    
Max Gust Speed 22 mph    
Visibility 8 miles    
Events Rain , Thunderstorm    
T = Trace of Precipitation, MM = Missing Value Source: NWS Daily Summary

Daily Weather History Graph

Daily Weather History Graph

Search for Another Location

Airport or City:

Trip Planner

Search our weather history database for the weather conditions in past years. The results will help you decide how hot, cold, wet, or windy it might be!

Date:

Astronomy

Feb. 21, 2013 Rise Set
Actual Time 7:03 AM CST 6:11 PM CST
Civil Twilight 6:37 AM CST 6:37 PM CST
Nautical Twilight 6:08 AM CST 7:07 PM CST
Astronomical Twilight 5:38 AM CST 7:37 PM CST
Moon 2:32 PM CST (2/21) 4:04 AM CST (2/21)
Length of Visible Light 11h 59m
Length of Day
11h 07m
Waxing Gibbous, 84% of the Moon is Illuminated
Feb 21
Waxing Gibbous
Feb 25
Full
Mar 4
Last Quarter
Mar 11
New
Mar 19
First Quarter

Hourly Weather History & Observations

Time (CST) Temp. Windchill Dew Point Humidity Pressure Visibility Wind Dir Wind Speed Gust Speed Precip Events Conditions
12:53 AM 33.1 °F 25.5 °F 30.0 °F 89% 30.00 in 10.0 mi East 9.2 mph - 0.01 in Rain Light Rain
1:23 AM 33.8 °F 25.3 °F 28.4 °F 81% 29.95 in 9.0 mi East 11.5 mph - 0.01 in Rain Light Rain
1:41 AM 33.8 °F 23.9 °F 28.4 °F 81% 29.93 in 8.0 mi East 15.0 mph 20.7 mph 0.04 in Rain , Thunderstorm Thunderstorms and Rain
1:53 AM 33.1 °F 24.9 °F 28.9 °F 85% 29.95 in 10.0 mi ENE 10.4 mph - 0.04 in Rain Light Rain
2:53 AM 33.1 °F 23.4 °F 28.0 °F 82% 29.89 in 10.0 mi East 13.8 mph 21.9 mph 0.02 in   Overcast
3:15 AM 33.8 °F 25.8 °F 28.4 °F 81% 29.84 in 8.0 mi East 10.4 mph - 0.04 in Rain , Thunderstorm Light Rain
3:33 AM 33.8 °F 25.8 °F 28.4 °F 81% 29.85 in 10.0 mi ESE 10.4 mph - 0.05 in Thunderstorm Overcast
3:53 AM 34.0 °F 24.2 °F 28.0 °F 79% 29.84 in 10.0 mi East 15.0 mph 19.6 mph 0.08 in Rain , Thunderstorm Light Thunderstorms and Rain
4:13 AM 33.8 °F 26.4 °F 28.4 °F 81% 29.80 in 10.0 mi East 9.2 mph 18.4 mph 0.01 in Rain , Thunderstorm Light Rain
4:37 AM 33.8 °F 24.8 °F 28.4 °F 81% 29.78 in 10.0 mi East 12.7 mph - 0.10 in Rain , Thunderstorm Light Freezing Rain
4:53 AM 33.1 °F 24.9 °F 28.0 °F 82% 29.79 in 10.0 mi East 10.4 mph - 0.11 in Rain Light Freezing Rain
5:03 AM 33.8 °F 25.8 °F 28.4 °F 81% 29.77 in 10.0 mi East 10.4 mph - 0.00 in Rain Light Freezing Rain
5:41 AM 33.8 °F 25.8 °F 28.4 °F 81% 29.76 in 10.0 mi East 10.4 mph - 0.00 in   Overcast
5:53 AM 33.1 °F 27.7 °F 28.0 °F 82% 29.79 in 10.0 mi East 5.8 mph - 0.00 in Rain Light Rain
6:48 AM 33.8 °F 29.6 °F 30.2 °F 87% 29.83 in 4.0 mi North 4.6 mph - 0.09 in Rain , Thunderstorm Light Rain
6:53 AM 33.1 °F 27.7 °F 30.0 °F 89% 29.85 in 5.0 mi North 5.8 mph - 0.12 in Rain , Thunderstorm Rain
7:03 AM 33.8 °F - 30.2 °F 87% 29.84 in 4.0 mi Calm Calm - 0.01 in Rain Light Rain
7:29 AM 33.8 °F 28.6 °F 30.2 °F 87% 29.87 in 7.0 mi West 5.8 mph - 0.02 in Rain Light Rain
7:49 AM 33.8 °F 27.0 °F 30.2 °F 87% 29.82 in 4.0 mi North 8.1 mph - 0.03 in Rain Light Rain
7:53 AM 33.1 °F 26.9 °F 30.0 °F 89% 29.85 in 4.0 mi North 6.9 mph - 0.04 in Rain Rain
8:04 AM 33.8 °F 28.6 °F 30.2 °F 87% 29.82 in 5.0 mi North 5.8 mph - 0.02 in Rain , Thunderstorm Thunderstorms and Rain
8:53 AM 32.0 °F 28.7 °F 30.0 °F 92% 29.85 in 5.0 mi North 3.5 mph - 0.24 in   Overcast
9:53 AM 33.1 °F 25.5 °F 30.0 °F 89% 29.83 in 9.0 mi East 9.2 mph - 0.09 in Rain Light Rain
10:53 AM 34.0 °F 25.5 °F 30.0 °F 85% 29.79 in 10.0 mi East 11.5 mph - 0.01 in   Overcast
11:53 AM 34.0 °F 26.6 °F 30.9 °F 89% 29.76 in 10.0 mi ESE 9.2 mph - N/A   Overcast
12:34 PM 35.6 °F 28.6 °F 30.2 °F 81% 29.71 in 10.0 mi SE 9.2 mph 18.4 mph N/A   Overcast
12:53 PM 35.1 °F 26.9 °F 30.9 °F 85% 29.73 in 10.0 mi SE 11.5 mph 19.6 mph N/A   Overcast
1:18 PM 35.6 °F 29.2 °F 30.2 °F 81% 29.69 in 10.0 mi SSE 8.1 mph - N/A   Overcast
1:53 PM 35.1 °F 29.3 °F 30.9 °F 85% 29.71 in 10.0 mi SSE 6.9 mph - N/A   Overcast
2:53 PM 35.1 °F 28.6 °F 30.9 °F 85% 29.73 in 4.0 mi South 8.1 mph - N/A   Overcast
3:53 PM 35.1 °F 30.1 °F 32.0 °F 89% 29.74 in 6.0 mi South 5.8 mph - 0.00 in   Overcast
4:41 PM 35.6 °F 31.7 °F 33.8 °F 93% 29.74 in 4.0 mi South 4.6 mph - N/A   Overcast
4:53 PM 35.1 °F 31.0 °F 33.1 °F 92% 29.78 in 2.0 mi South 4.6 mph - N/A   Overcast
5:02 PM 35.6 °F 31.7 °F 33.8 °F 93% 29.76 in 1.5 mi South 4.6 mph - N/A   Overcast
5:38 PM 35.6 °F 32.8 °F 33.8 °F 93% 29.78 in 2.0 mi South 3.5 mph - N/A   Overcast
5:53 PM 35.1 °F 32.2 °F 33.1 °F 92% 29.81 in 2.0 mi South 3.5 mph - N/A   Overcast
6:04 PM 35.6 °F 32.8 °F 33.8 °F 93% 29.79 in 1.8 mi South 3.5 mph - N/A   Overcast
6:27 PM 35.6 °F - 33.8 °F 93% 29.79 in 2.5 mi Calm Calm - N/A   Overcast
6:53 PM 35.1 °F - 34.0 °F 96% 29.82 in 3.0 mi Calm Calm - N/A   Overcast
7:35 PM 35.6 °F 31.7 °F 33.8 °F 93% 29.82 in 7.0 mi West 4.6 mph - N/A   Overcast
7:53 PM 36.0 °F 32.1 °F 32.0 °F 86% 29.85 in 10.0 mi West 4.6 mph - N/A   Overcast
8:53 PM 36.0 °F 29.0 °F 30.0 °F 79% 29.88 in 10.0 mi West 9.2 mph 16.1 mph N/A   Overcast
9:15 PM 33.8 °F 26.4 °F 28.4 °F 81% 29.88 in 10.0 mi West 9.2 mph 17.3 mph N/A   Overcast
9:41 PM 32.0 °F 24.8 °F 24.8 °F 75% 29.91 in 10.0 mi West 8.1 mph 18.4 mph N/A   Mostly Cloudy
9:53 PM 32.0 °F 27.5 °F 26.1 °F 79% 29.94 in 10.0 mi West 4.6 mph - N/A   Overcast
10:53 PM 30.0 °F 22.4 °F 21.9 °F 72% 29.97 in 10.0 mi West 8.1 mph 18.4 mph N/A   Overcast
11:27 PM 28.4 °F 19.1 °F 19.4 °F 69% 29.96 in 10.0 mi WNW 10.4 mph 16.1 mph N/A   Scattered Clouds
11:53 PM 27.0 °F 20.5 °F 19.0 °F 72% 30.01 in 10.0 mi Variable 5.8 mph - N/A   Clear